VR2R-13 Weather Reports


Display with metric or nautical units.
time (UTC)temp
F
wind
direction
speed
MPH
gust
MPH
rain 1hr
in
rain 24hr
in
rain mn
in
humidity
%
barometer
mb
20260831082511 71 147 3.0 5.0 0.00 0.00 0.00 98 901.8
20260831082212 71 132 1.0 5.0 0.00 0.00 0.00 98 901.8
20260831082011 70 181 3.0 6.0 0.00 0.00 0.00 98 901.8
20260831081612 70 77 3.0 6.0 0.00 0.00 0.00 98 901.8
20260831081511 71 108 4.0 6.0 0.00 0.00 0.00 98 901.8
20260831081013 70 111 4.0 6.0 0.00 0.00 0.00 98 901.8
20260831081011 70 113 4.0 6.0 0.00 0.00 0.00 98 901.8
20260831080512 71 81 5.0 8.0 0.00 0.00 0.00 98 901.8
20260831080412 71 119 6.0 8.0 0.00 0.00 0.00 98 901.8
20260831080011 71 72 4.0 5.0 0.00 0.00 0.00 98 901.8
20260831075812 71 89 3.0 5.0 0.00 0.00 0.00 98 901.9
20260831075511 71 56 5.0 6.0 0.00 0.00 0.00 98 901.8
20260831075212 71 71 3.0 5.0 0.00 0.00 0.00 98 901.8
20260831075011 71 97 4.0 5.0 0.00 0.00 0.00 98 901.8
20260831074612 71 79 3.0 5.0 0.00 0.00 0.00 98 901.8
20260831074511 71 76 2.0 5.0 0.00 0.00 0.00 98 901.8
20260831074012 71 81 1.0 5.0 0.00 0.00 0.00 98 901.8
20260831073511 71 20 1.0 4.0 0.00 0.00 0.00 98 901.9
20260831073412 71 76 1.0 3.0 0.00 0.00 0.00 98 901.9
20260831073012 71 88 0.0 0.0 0.00 0.00 0.00 98 901.9
20260831072812 71 87 3.0 5.0 0.00 0.00 0.00 98 901.9
20260831072510 71 74 3.0 5.0 0.00 0.00 0.00 98 902.0
20260831072212 71 55 4.0 5.0 0.00 0.00 0.00 98 902.1
20260831072011 70 86 4.0 5.0 0.00 0.00 0.00 98 902.0
20260831071612 70 76 4.0 5.0 0.00 0.00 0.00 98 902.1
20260831071510 70 71 1.0 5.0 0.00 0.00 0.00 98 902.0
20260831071012 70 89 2.0 5.0 0.00 0.00 0.00 98 902.0
20260831071010 70 73 2.0 5.0 0.00 0.00 0.00 98 902.0
20260831070510 71 77 3.0 5.0 0.00 0.00 0.00 98 902.0
20260831070412 71 71 3.0 4.0 0.00 0.00 0.00 98 902.0
20260831070010 71 63 2.0 4.0 0.00 0.00 0.00 98 902.0
20260831065811 71 72 1.0 3.0 0.00 0.00 0.00 98 902.0
20260831065510 71 104 1.0 4.0 0.01 0.01 0.00 98 902.0
20260831065212 71 61 1.0 4.0 0.01 0.01 0.00 98 902.0
20260831065010 71 83 2.0 4.0 0.01 0.01 0.00 98 902.0
20260831064612 71 108 2.0 3.0 0.01 0.01 0.00 98 902.0
20260831064510 70 101 2.0 3.0 0.01 0.01 0.00 98 902.0
20260831064012 70 77 2.0 5.0 0.03 0.03 0.00 98 902.1
20260831064010 70 79 2.0 5.0 0.03 0.03 0.00 98 902.1
20260831063510 70 83 2.0 5.0 0.01 0.01 0.00 98 902.2
20260831063411 70 85 0.0 3.0 0.00 0.00 0.00 98 902.2
20260831063010 70 102 4.0 5.0 0.06 0.06 0.00 98 902.3
20260831062812 71 87 3.0 5.0 0.05 0.05 0.00 98 902.3
20260831062510 70 82 4.0 5.0 0.03 0.03 0.00 98 902.4
20260831062211 71 107 3.0 5.0 0.00 0.00 0.00 98 902.4
20260831062010 71 96 0.0 2.0 0.00 0.00 0.00 98 902.4
20260831061611 70 74 2.0 4.0 0.01 0.01 0.00 98 902.4
20260831061510 70 73 0.0 4.0 0.00 0.00 0.00 98 902.5
20260831061012 71 71 2.0 6.0 0.00 0.00 0.00 98 902.5
20260831061010 71 68 2.0 6.0 0.00 0.00 0.00 98 902.5
20260831060510 71 100 3.0 6.0 0.00 0.00 0.00 98 902.5
20260831060411 71 35 2.0 6.0 0.00 0.00 0.00 98 902.5
20260831060010 71 55 3.0 6.0 0.00 0.00 0.00 98 902.6
20260831055811 71 23 3.0 4.0 0.00 0.00 0.00 98 902.5
20260831055510 71 58 0.0 4.0 0.00 0.00 0.00 98 902.5
20260831055211 70 65 2.0 6.0 0.00 0.00 0.00 98 902.6
20260831055010 70 43 5.0 7.0 0.00 0.00 0.00 98 902.6
20260831054611 70 45 5.0 6.0 0.00 0.00 0.00 98 902.6
20260831054510 70 65 5.0 6.0 0.00 0.00 0.00 98 902.6
20260831054011 70 59 4.0 6.0 0.00 0.00 0.00 98 902.6
20260831054009 70 60 4.0 6.0 0.00 0.00 0.00 98 902.7
20260831053510 70 45 4.0 6.0 0.00 0.00 0.00 98 902.6
20260831053411 70 48 4.0 6.0 0.00 0.00 0.00 98 902.7
20260831053009 70 77 4.0 7.0 0.00 0.00 0.00 98 902.7
20260831052811 70 66 5.0 7.0 0.00 0.00 0.00 98 902.8
20260831052509 70 60 4.0 7.0 0.00 0.00 0.00 98 902.8
20260831052211 69 85 5.0 7.0 0.00 0.00 0.00 97 902.9
20260831052010 69 63 4.0 5.0 0.00 0.00 0.00 97 902.9
20260831051611 70 81 3.0 6.0 0.00 0.00 0.00 98 903.0
20260831051011 70 93 6.0 9.0 0.01 0.01 0.00 98 903.1
20260831051009 70 77 6.0 9.0 0.01 0.01 0.00 98 903.1
20260831050509 70 65 6.0 9.0 0.01 0.01 0.00 98 903.1
20260831050411 70 59 6.0 9.0 0.01 0.01 0.00 98 903.1
20260831045811 70 51 6.0 10.0 0.05 0.05 0.00 97 903.2
20260831045509 69 64 8.0 10.0 0.03 0.03 0.00 97 903.3
20260831045211 69 53 8.0 10.0 0.02 0.02 0.00 97 903.3
20260831045009 69 46 8.0 10.0 0.01 0.01 0.00 97 903.3
20260831044610 70 36 6.0 9.0 0.00 0.00 0.00 97 903.4
20260831044011 70 58 4.0 9.0 0.00 0.00 0.00 97 903.5
20260831044009 70 60 4.0 9.0 0.00 0.00 0.00 97 903.4
20260831043509 70 40 3.0 6.0 0.01 0.01 0.00 97 903.5
20260831043410 70 69 3.0 6.0 0.01 0.01 0.00 97 903.5
20260831043009 71 43 3.0 6.0 0.01 0.01 0.00 96 903.5
20260831042811 71 20 2.0 6.0 0.00 0.00 0.00 96 903.6
20260831042509 71 95 1.0 4.0 0.00 0.00 0.00 96 903.6
20260831042210 71 32 3.0 4.0 0.00 0.00 0.00 96 903.6
20260831042009 71 23 1.0 4.0 0.00 0.00 0.00 96 903.7
20260831041610 72 257 0.0 0.0 0.00 0.00 0.00 96 903.7
20260831041509 72 46 1.0 5.0 0.00 0.00 0.00 96 903.7
20260831041011 72 20 0.0 1.0 0.00 0.00 0.00 96 903.7
20260831041009 72 19 0.0 1.0 0.00 0.00 0.00 96 903.7
20260831040410 72 360 3.0 6.0 0.02 0.02 0.00 96 903.7
20260831035810 72 208 3.0 5.0 0.02 0.02 0.00 96 903.7
20260831035509 72 114 2.0 4.0 0.02 0.02 0.00 96 903.7
20260831035210 72 200 3.0 4.0 0.02 0.02 0.00 95 903.8
20260831035009 72 227 2.0 4.0 0.02 0.02 0.00 95 903.8
20260831034610 72 265 1.0 3.0 0.02 0.02 0.00 95 903.8
20260831034509 72 266 1.0 3.0 0.02 0.02 0.00 94 903.8
20260831034012 72 202 2.0 3.0 0.01 0.01 0.00 94 903.9
20260831034010 72 200 2.0 3.0 0.01 0.01 0.00 94 903.9
20260831033509 73 245 1.0 4.0 0.00 0.00 0.00 94 904.0
20260831033410 72 261 1.0 4.0 0.00 0.00 0.00 94 904.0
20260831033009 72 289 2.0 4.0 0.00 0.00 0.00 94 904.0
20260831032810 73 246 2.0 4.0 0.00 0.00 0.00 94 904.1
20260831032509 73 218 1.0 4.0 0.00 0.00 0.00 94 904.1
20260831032210 73 138 1.0 4.0 0.00 0.00 0.00 94 904.2
20260831032009 73 226 3.0 6.0 0.00 0.00 0.00 93 904.1
20260831031611 73 193 3.0 4.0 0.00 0.00 0.00 93 904.1
20260831031508 73 210 1.0 4.0 0.00 0.00 0.00 93 904.1
20260831031010 73 177 1.0 3.0 0.00 0.00 0.00 94 904.2
20260831030509 73 231 0.0 0.0 0.00 0.00 0.00 95 904.2
20260831030008 72 131 2.0 5.0 0.00 0.00 0.00 94 904.2
20260831025810 73 104 2.0 5.0 0.00 0.00 0.00 94 904.2
20260831025509 73 184 2.0 4.0 0.00 0.00 0.00 94 904.3
20260831025210 73 230 1.0 4.0 0.00 0.00 0.00 94 904.2
20260831025008 74 224 1.0 4.0 0.00 0.00 0.00 94 904.2
20260831024610 74 196 2.0 7.0 0.00 0.00 0.00 94 904.2
20260831024509 74 116 2.0 7.0 0.00 0.00 0.00 94 904.2
20260831024008 73 360 0.0 2.0 0.00 0.00 0.00 93 904.2
20260831023509 73 17 3.0 7.0 0.00 0.00 0.00 94 904.2
20260831023409 73 231 3.0 7.0 0.00 0.00 0.00 94 904.1
20260831023008 73 38 3.0 7.0 0.00 0.00 0.00 93 904.1
20260831022809 73 84 2.0 7.0 0.00 0.00 0.00 93 904.1
20260831022509 73 51 4.0 7.0 0.00 0.00 0.00 93 904.1
20260831022209 73 39 3.0 7.0 0.00 0.00 0.00 93 904.1
20260831022008 73 59 4.0 8.0 0.00 0.00 0.00 93 904.1
20260831021609 73 349 2.0 8.0 0.00 0.00 0.00 92 904.1
20260831021508 74 335 3.0 8.0 0.00 0.00 0.00 92 904.2
20260831021010 75 60 3.0 8.0 0.00 0.00 0.00 93 904.1
20260831021008 75 48 3.0 8.0 0.00 0.00 0.00 93 904.1
20260831020508 73 8 3.0 8.0 0.00 0.00 0.00 93 904.1
20260831020409 73 47 2.0 8.0 0.00 0.00 0.00 94 904.0
20260831020009 73 48 3.0 6.0 0.00 0.00 0.00 95 903.9
20260831015809 72 12 2.0 6.0 0.00 0.00 0.00 95 903.9
20260831015509 72 32 5.0 8.0 0.00 0.00 0.00 95 903.9
20260831015209 72 55 5.0 9.0 0.00 0.00 0.00 96 903.9
20260831015008 71 47 5.0 9.0 0.00 0.00 0.00 97 903.9
20260831014609 71 34 6.0 9.0 0.00 0.00 0.00 96 904.0
20260831014509 71 33 5.0 9.0 0.00 0.00 0.00 96 904.0
20260831014009 71 5 5.0 9.0 0.00 0.00 0.00 95 904.0
20260831013508 71 58 4.0 7.0 0.00 0.00 0.00 96 904.0
20260831013409 71 20 4.0 6.0 0.00 0.00 0.00 95 904.0
20260831013008 71 31 4.0 6.0 0.00 0.00 0.00 95 904.0
20260831012809 71 29 4.0 6.0 0.00 0.00 0.00 95 904.0
20260831012509 71 40 3.0 5.0 0.00 0.00 0.00 95 904.0
20260831012209 71 42 3.0 5.0 0.00 0.00 0.00 95 904.1
20260831012008 71 15 2.0 5.0 0.00 0.00 0.00 94 904.0
20260831011609 72 36 2.0 5.0 0.00 0.00 0.00 95 904.1
20260831011508 72 56 2.0 6.0 0.00 0.00 0.00 95 904.1
20260831011009 72 32 3.0 6.0 0.00 0.00 0.00 95 904.1
20260831010508 72 64 3.0 6.0 0.00 0.00 0.00 94 904.1
20260831010409 72 90 4.0 6.0 0.00 0.00 0.00 95 904.1
20260831010007 71 76 4.0 6.0 0.00 0.00 0.00 96 904.1
20260831005809 71 90 3.0 7.0 0.00 0.00 0.00 97 904.1
20260831005508 71 106 3.0 8.0 0.00 0.00 0.00 96 904.1
20260831005209 71 77 4.0 8.0 0.00 0.00 0.00 96 904.1
20260831005008 71 111 5.0 8.0 0.00 0.00 0.00 96 904.1
20260831004609 71 79 5.0 8.0 0.00 0.00 0.00 95 904.1
20260831004509 71 74 4.0 6.0 0.00 0.00 0.00 96 904.1
20260831004009 71 81 0.0 3.0 0.00 0.00 0.00 95 904.1
20260831003509 71 94 5.0 7.0 0.00 0.00 0.00 95 904.1
20260831003409 71 97 4.0 7.0 0.00 0.00 0.00 95 904.1
20260831003007 71 41 1.0 4.0 0.00 0.00 0.00 95 904.1
20260831002809 71 72 2.0 4.0 0.00 0.00 0.00 96 904.2
20260831002507 70 9 0.0 2.0 0.00 0.00 0.00 96 904.1
20260831002209 70 33 4.0 7.0 0.00 0.00 0.00 96 904.1
20260831002007 70 48 4.0 7.0 0.00 0.00 0.00 96 904.1
20260831001608 70 2 5.0 7.0 0.00 0.00 0.00 96 904.1
20260831001508 70 25 4.0 7.0 0.00 0.00 0.00 96 904.0
20260831001009 70 22 5.0 7.0 0.00 0.00 0.00 96 904.1
20260831001007 70 12 5.0 7.0 0.00 0.00 0.00 96 904.1
20260831000507 70 4 5.0 7.0 0.00 0.00 0.00 96 904.0
20260831000410 70 30 5.0 6.0 0.00 0.00 0.00 95 904.0
20260830235808 70 360 5.0 6.0 0.00 0.00 0.00 95 904.0
20260830235507 70 360 4.0 6.0 0.00 0.00 0.00 94 904.0
20260830235208 70 355 5.0 6.0 0.00 0.00 0.00 94 903.9
20260830235007 70 21 5.0 6.0 0.00 0.00 0.00 94 904.0
20260830234608 70 359 1.0 3.0 0.00 0.00 0.00 95 904.0
20260830234507 70 352 0.0 1.0 0.00 0.00 0.00 95 904.0
20260830234008 70 319 0.0 6.0 0.00 0.00 0.00 95 903.9
20260830233507 70 227 3.0 6.0 0.00 0.00 0.00 95 903.9
20260830233408 70 349 4.0 6.0 0.00 0.00 0.00 94 903.8
20260830232808 71 348 3.0 4.0 0.00 0.00 0.00 94 903.7
20260830232507 71 358 2.0 4.0 0.00 0.00 0.00 93 903.7
20260830232208 71 20 0.0 2.0 0.00 0.00 0.00 94 903.7
20260830232006 71 282 0.0 3.0 0.00 0.00 0.00 94 903.7
20260830231608 71 245 1.0 5.0 0.00 0.00 0.00 94 903.6
20260830231508 71 245 1.0 5.0 0.00 0.00 0.00 94 903.6
20260830231008 71 360 3.0 6.0 0.00 0.00 0.00 94 903.6
20260830230506 71 12 3.0 6.0 0.00 0.00 0.00 94 903.5
20260830225808 71 30 4.0 6.0 0.00 0.00 0.00 94 903.5
20260830225506 71 13 5.0 6.0 0.00 0.00 0.00 94 903.5
20260830225208 71 6 4.0 5.0 0.00 0.00 0.00 94 903.4
20260830225006 71 6 4.0 5.0 0.00 0.00 0.00 94 903.4
20260830224608 71 4 3.0 5.0 0.00 0.00 0.00 94 903.4
20260830224506 71 360 3.0 4.0 0.00 0.00 0.00 94 903.4
20260830224008 70 360 1.0 4.0 0.00 0.00 0.00 95 903.3
20260830224006 70 355 1.0 4.0 0.00 0.00 0.00 95 903.3
20260830223506 70 4 6.0 7.0 0.00 0.00 0.00 96 903.2
20260830223408 70 3 6.0 7.0 0.00 0.00 0.00 96 903.2
20260830223006 69 15 6.0 7.0 0.00 0.00 0.00 96 903.2
20260830222808 69 25 3.0 7.0 0.00 0.00 0.00 96 903.1
20260830222507 70 26 6.0 8.0 0.00 0.00 0.00 96 903.1
20260830222208 70 357 6.0 8.0 0.00 0.00 0.00 95 903.1
20260830222008 70 33 6.0 7.0 0.00 0.00 0.00 95 903.1
20260830221607 70 6 5.0 7.0 0.00 0.00 0.00 95 903.1
20260830221506 70 360 5.0 7.0 0.00 0.00 0.00 95 903.1
20260830221008 70 12 5.0 7.0 0.00 0.00 0.00 95 903.0
20260830221006 70 10 5.0 7.0 0.00 0.00 0.00 95 903.0
20260830220506 70 3 6.0 8.0 0.00 0.00 0.00 95 903.1
20260830220407 70 360 6.0 9.0 0.00 0.00 0.00 95 903.0
20260830220006 70 2 7.0 9.0 0.00 0.00 0.00 95 902.9
20260830215807 70 1 7.0 9.0 0.00 0.00 0.00 95 903.0
20260830215506 70 360 6.0 9.0 0.00 0.00 0.00 95 902.9
20260830215207 70 354 6.0 10.0 0.00 0.00 0.00 96 902.9
20260830215006 70 342 7.0 10.0 0.00 0.00 0.00 96 902.8
20260830214607 70 360 6.0 10.0 0.00 0.00 0.00 96 902.9
20260830214506 70 358 7.0 10.0 0.00 0.00 0.00 96 902.9
20260830214007 70 339 6.0 11.0 0.00 0.00 0.00 96 902.9
20260830213506 70 360 9.0 11.0 0.00 0.00 0.00 95 902.9
20260830213407 70 352 9.0 11.0 0.00 0.00 0.00 95 902.9
20260830213006 70 1 8.0 10.0 0.00 0.00 0.00 94 902.8
20260830212807 70 351 7.0 9.0 0.00 0.00 0.00 94 902.9
20260830212506 70 347 7.0 9.0 0.00 0.00 0.00 93 902.9
20260830212207 70 360 7.0 9.0 0.00 0.00 0.00 93 902.9
20260830211607 70 357 8.0 9.0 0.00 0.00 0.00 92 902.8
20260830211506 70 359 7.0 9.0 0.00 0.00 0.00 92 902.8
20260830211006 71 17 7.0 9.0 0.00 0.00 0.00 91 902.7
20260830210506 71 10 7.0 10.0 0.00 0.00 0.00 91 902.7
20260830210407 71 9 7.0 10.0 0.00 0.00 0.00 91 902.7
20260830210006 71 0 7.0 10.0 0.00 0.00 0.00 91 902.7
20260830205807 71 20 8.0 10.0 0.00 0.00 0.00 91 902.6
20260830205207 71 8 8.0 10.0 0.00 0.00 0.00 91 902.6
20260830205006 71 11 9.0 10.0 0.00 0.00 0.00 91 902.6
20260830204607 71 353 9.0 10.0 0.00 0.00 0.00 91 902.6
20260830204505 71 22 8.0 10.0 0.00 0.00 0.00 91 902.6
20260830204007 70 25 8.0 9.0 0.00 0.00 0.00 91 902.7
20260830204005 70 18 8.0 9.0 0.00 0.00 0.00 91 902.7
20260830203505 70 23 7.0 9.0 0.00 0.00 0.00 92 902.7
20260830203407 70 7 7.0 9.0 0.00 0.00 0.00 92 902.7
20260830203005 70 22 7.0 9.0 0.00 0.00 0.00 92 902.7
20260830202807 70 19 7.0 9.0 0.00 0.00 0.00 92 902.8
20260830202505 70 16 6.0 9.0 0.00 0.00 0.00 92 902.8
20260830202206 70 5 7.0 9.0 0.00 0.00 0.00 93 902.8
20260830202005 70 7 8.0 9.0 0.00 0.00 0.00 93 902.8
20260830201606 70 10 8.0 10.0 0.00 0.00 0.00 93 902.7
20260830201505 70 21 8.0 10.0 0.00 0.00 0.00 93 902.8
20260830201007 70 27 7.0 10.0 0.00 0.00 0.00 92 902.8
20260830201005 70 10 7.0 10.0 0.00 0.00 0.00 92 902.8
20260830200505 71 3 6.0 8.0 0.00 0.00 0.00 91 902.8
20260830200406 71 5 6.0 8.0 0.00 0.00 0.00 91 902.9
20260830200005 71 38 7.0 8.0 0.00 0.00 0.00 90 902.9
20260830195806 71 7 6.0 7.0 0.00 0.00 0.00 91 902.9
20260830195505 71 360 5.0 6.0 0.00 0.00 0.00 90 902.9
20260830195206 71 360 4.0 5.0 0.00 0.00 0.00 90 902.9
20260830195005 71 1 3.0 5.0 0.00 0.00 0.00 90 902.9
20260830194606 71 353 4.0 6.0 0.00 0.00 0.00 90 902.8
20260830194505 71 354 4.0 6.0 0.00 0.00 0.00 90 902.9
20260830194007 71 355 5.0 6.0 0.00 0.00 0.00 89 902.8
20260830194005 71 356 5.0 6.0 0.00 0.00 0.00 89 902.9
20260830193505 71 8 5.0 6.0 0.00 0.00 0.00 88 902.8
20260830193406 71 6 5.0 6.0 0.00 0.00 0.00 87 902.9
20260830193005 71 11 6.0 7.0 0.00 0.00 0.00 86 902.8
20260830192806 71 6 5.0 7.0 0.00 0.00 0.00 86 902.8
20260830192505 71 360 6.0 7.0 0.00 0.00 0.00 86 902.8
20260830192206 71 10 5.0 6.0 0.00 0.00 0.00 86 902.8
20260830192005 71 6 5.0 6.0 0.00 0.00 0.00 86 902.9
20260830191606 71 14 6.0 6.0 0.00 0.00 0.00 86 902.9
20260830191505 71 8 6.0 6.0 0.00 0.00 0.00 86 902.9
20260830191006 71 5 5.0 6.0 0.00 0.00 0.00 87 902.9
20260830190505 71 4 4.0 7.0 0.00 0.00 0.00 87 902.8
20260830190005 71 348 5.0 7.0 0.00 0.00 0.00 87 902.9
20260830185806 71 360 5.0 7.0 0.00 0.00 0.00 87 902.9
20260830185505 71 360 5.0 7.0 0.00 0.00 0.00 87 902.8
20260830185206 71 353 5.0 6.0 0.00 0.00 0.00 87 902.8
20260830185006 71 5 4.0 6.0 0.00 0.00 0.00 87 902.9
20260830184606 71 358 5.0 7.0 0.00 0.00 0.00 88 902.8
20260830184505 71 352 5.0 7.0 0.00 0.00 0.00 88 902.9
20260830184006 71 335 5.0 7.0 0.00 0.00 0.00 88 902.8
20260830184004 71 337 5.0 7.0 0.00 0.00 0.00 88 902.8
20260830183504 71 9 5.0 7.0 0.00 0.00 0.00 87 902.9
20260830183406 71 357 5.0 7.0 0.00 0.00 0.00 87 902.9
20260830183004 72 348 4.0 7.0 0.00 0.00 0.00 86 903.0
20260830182806 72 331 4.0 7.0 0.00 0.00 0.00 85 903.1
20260830182504 72 13 4.0 7.0 0.00 0.00 0.00 86 903.1
20260830182206 72 358 4.0 7.0 0.00 0.00 0.00 86 903.2
20260830182004 72 352 3.0 7.0 0.00 0.00 0.00 86 903.1
20260830181606 72 334 4.0 7.0 0.00 0.00 0.00 86 903.2
20260830181504 72 309 4.0 7.0 0.00 0.00 0.00 86 903.2
20260830181006 72 338 2.0 7.0 0.00 0.00 0.00 87 903.2
20260830181004 72 348 2.0 7.0 0.00 0.00 0.00 87 903.2
20260830180504 72 312 3.0 7.0 0.00 0.00 0.00 86 903.2
20260830180405 72 314 3.0 7.0 0.00 0.00 0.00 86 903.2
20260830180004 72 290 3.0 6.0 0.00 0.00 0.00 86 903.3
20260830175805 72 355 4.0 6.0 0.00 0.00 0.00 86 903.3
20260830175205 72 360 4.0 7.0 0.00 0.00 0.00 86 903.4
20260830175004 72 16 1.0 7.0 0.00 0.00 0.00 86 903.5
20260830174605 72 360 4.0 6.0 0.00 0.00 0.00 86 903.4
20260830174504 72 349 3.0 6.0 0.00 0.00 0.00 86 903.5
20260830174006 72 335 4.0 8.0 0.00 0.00 0.00 87 903.5
20260830174004 72 349 4.0 8.0 0.00 0.00 0.00 87 903.5
20260830173504 71 299 4.0 8.0 0.00 0.00 0.00 88 903.5
20260830173405 71 315 4.0 8.0 0.00 0.00 0.00 88 903.5
20260830173004 71 348 4.0 8.0 0.00 0.00 0.00 89 903.6
20260830172805 70 348 4.0 8.0 0.00 0.00 0.00 89 903.5
20260830172504 70 354 5.0 8.0 0.00 0.00 0.00 89 903.6
20260830172205 70 348 2.0 7.0 0.00 0.00 0.00 90 903.6
20260830172004 70 270 5.0 8.0 0.01 0.01 0.00 90 903.5
20260830171605 70 349 5.0 8.0 0.01 0.01 0.00 91 903.6
20260830171006 70 354 4.0 7.0 0.00 0.00 0.00 93 903.6
20260830171004 70 343 4.0 7.0 0.00 0.00 0.00 93 903.6
20260830170504 69 356 2.0 7.0 0.00 0.00 0.00 93 903.6
20260830170405 69 348 0.0 5.0 0.00 0.00 0.00 94 903.7
20260830165805 69 355 1.0 7.0 0.00 0.00 0.00 95 903.6
20260830165504 69 354 6.0 8.0 0.00 0.00 0.00 95 903.7
20260830165205 69 353 5.0 8.0 0.00 0.00 0.00 96 903.8
20260830165004 69 349 6.0 8.0 0.00 0.00 0.00 96 903.8
20260830164504 69 353 6.0 7.0 0.00 0.00 0.00 97 903.9
20260830164005 70 347 0.0 6.0 0.00 0.00 0.00 98 903.9
20260830163405 70 350 4.0 7.0 0.00 0.00 0.00 98 904.0
20260830162805 70 348 6.0 7.0 0.00 0.00 0.00 98 904.1
20260830161503 69 350 6.0 8.0 0.00 0.00 0.00 98 904.2
20260830161005 69 356 6.0 8.0 0.00 0.00 0.00 98 904.2
20260830160503 69 5 7.0 9.0 0.00 0.00 0.00 98 904.2
20260830160405 69 6 7.0 9.0 0.00 0.00 0.00 98 904.2
20260830160003 70 10 7.0 9.0 0.00 0.00 0.00 98 904.2
20260830155805 70 360 7.0 9.0 0.00 0.00 0.00 98 904.3
20260830155503 70 360 7.0 9.0 0.00 0.00 0.00 98 904.3
20260830155204 70 2 7.0 9.0 0.00 0.00 0.00 98 904.4
20260830155003 70 348 7.0 9.0 0.00 0.00 0.00 98 904.4
20260830154604 70 349 7.0 9.0 0.00 0.00 0.00 98 904.4
20260830154506 70 10 7.0 9.0 0.00 0.00 0.00 98 904.4
20260830154005 70 360 7.0 9.0 0.00 0.00 0.00 98 904.4
20260830153405 70 23 7.0 9.0 0.00 0.00 0.00 98 904.5
20260830152003 70 6 7.0 8.0 0.00 0.00 0.00 99 904.4
20260830151604 70 27 0.0 9.0 0.00 0.00 0.00 99 904.5
20260830151503 70 3 7.0 9.0 0.00 0.00 0.00 99 904.5
20260830151005 69 22 0.0 9.0 0.00 0.00 0.00 99 904.4
20260830151003 69 9 0.0 9.0 0.00 0.00 0.00 98 904.4
20260830150503 69 360 0.0 6.0 0.00 0.00 0.00 98 904.4
20260830150404 70 8 6.0 8.0 0.00 0.00 0.00 98 904.4
20260830150003 70 11 3.0 8.0 0.00 0.00 0.00 99 904.3
20260830145804 70 8 7.0 9.0 0.00 0.00 0.00 98 904.3
20260830145503 70 17 7.0 9.0 0.00 0.00 0.00 98 904.4
20260830145204 70 11 0.0 6.0 0.00 0.00 0.00 99 904.4
20260830145003 70 19 6.0 10.0 0.00 0.00 0.00 99 904.4
20260830144604 70 360 8.0 10.0 0.00 0.00 0.00 99 904.4
20260830144503 70 9 7.0 10.0 0.00 0.00 0.00 99 904.4
20260830143504 69 360 0.0 0.0 0.00 0.00 0.00 99 904.3
20260830143003 70 8 8.0 10.0 0.00 0.00 0.00 98 904.3
20260830142804 70 7 7.0 10.0 0.00 0.00 0.00 98 904.2
20260830142504 70 28 7.0 10.0 0.00 0.00 0.00 98 904.2
20260830142204 70 18 7.0 10.0 0.00 0.00 0.00 98 904.3
20260830141604 70 3 5.0 10.0 0.00 0.00 0.00 98 904.3
20260830141502 70 19 6.0 10.0 0.00 0.00 0.00 98 904.3
20260830141004 70 10 6.0 10.0 0.00 0.00 0.00 98 904.3
20260830140502 71 26 4.0 8.0 0.00 0.00 0.00 99 904.3
20260830140404 70 27 1.0 8.0 0.00 0.00 0.00 99 904.3
20260830140002 70 59 6.0 10.0 0.00 0.00 0.00 98 904.3
20260830135803 71 25 7.0 10.0 0.00 0.00 0.00 98 904.3
20260830135203 71 62 7.0 10.0 0.00 0.00 0.00 99 904.3
20260830134603 71 49 5.0 10.0 0.00 0.00 0.00 99 904.4
20260830134502 70 360 5.0 10.0 0.00 0.00 0.00 98 904.4
20260830134004 71 39 5.0 7.0 0.00 0.00 0.00 99 904.4
20260830134002 71 20 5.0 7.0 0.00 0.00 0.00 99 904.4
20260830133502 71 32 5.0 7.0 0.00 0.00 0.00 99 904.4
20260830133403 71 12 5.0 7.0 0.00 0.00 0.00 99 904.4
20260830133002 71 31 2.0 7.0 0.00 0.00 0.00 99 904.5
20260830132803 70 10 4.0 8.0 0.00 0.00 0.00 99 904.4
20260830132502 70 22 4.0 8.0 0.00 0.00 0.00 99 904.4
20260830132203 70 350 4.0 8.0 0.00 0.00 0.00 98 904.4
20260830132002 70 33 5.0 8.0 0.00 0.00 0.00 99 904.4
20260830131603 70 53 3.0 10.0 0.00 0.00 0.00 99 904.4
20260830131502 70 303 3.0 10.0 0.00 0.00 0.00 98 904.4
20260830131004 71 352 6.0 9.0 0.00 0.00 0.00 99 904.3
20260830131002 71 14 6.0 9.0 0.00 0.00 0.00 99 904.3
20260830130502 70 2 1.0 6.0 0.00 0.00 0.00 99 904.3
20260830130002 71 31 5.0 9.0 0.00 0.00 0.00 99 904.3
20260830125803 71 4 7.0 9.0 0.00 0.00 0.00 99 904.3
20260830125502 71 204 6.0 9.0 0.00 0.00 0.00 99 904.3
20260830125203 70 31 6.0 9.0 0.00 0.00 0.00 98 904.3
20260830125002 70 10 7.0 9.0 0.00 0.00 0.00 98 904.3
20260830124604 70 12 8.0 9.0 0.00 0.00 0.00 98 904.1
20260830124502 70 8 8.0 9.0 0.00 0.00 0.00 98 904.2
20260830124003 70 21 5.0 9.0 0.00 0.00 0.00 98 904.1
20260830123502 70 360 5.0 9.0 0.00 0.00 0.00 98 904.1
20260830123403 70 360 5.0 7.0 0.00 0.00 0.00 98 904.1
20260830123002 71 40 2.0 7.0 0.00 0.00 0.00 98 904.2
20260830122803 71 73 3.0 7.0 0.01 0.01 0.00 99 904.2
20260830122502 71 22 4.0 7.0 0.01 0.01 0.00 99 904.2
20260830122205 71 345 5.0 7.0 0.00 0.00 0.00 99 904.2
20260830122002 71 360 5.0 8.0 0.00 0.00 0.00 99 904.2
20260830121603 71 21 3.0 7.0 0.00 0.00 0.00 99 904.2
20260830121502 70 16 0.0 0.0 0.00 0.00 0.00 99 904.2
20260830120501 71 38 4.0 7.0 0.00 0.00 0.00 98 904.1
20260830120403 71 30 4.0 7.0 0.00 0.00 0.00 99 904.1
20260830115803 71 32 5.0 9.0 0.00 0.00 0.00 99 904.1
20260830115502 71 44 6.0 10.0 0.00 0.00 0.00 98 904.0
20260830115202 71 25 6.0 10.0 0.00 0.00 0.00 98 904.0
20260830115001 71 9 6.0 10.0 0.00 0.00 0.00 98 903.9
20260830114602 71 35 8.0 10.0 0.00 0.00 0.00 99 903.9
20260830114501 71 23 8.0 10.0 0.00 0.00 0.00 98 903.9
20260830114003 71 32 7.0 8.0 0.00 0.00 0.00 98 903.8
20260830114001 71 21 7.0 8.0 0.00 0.00 0.00 98 903.8
20260830113501 70 27 7.0 8.0 0.00 0.00 0.00 98 903.7
20260830113402 70 25 7.0 8.0 0.00 0.00 0.00 98 903.7
20260830113001 71 14 5.0 8.0 0.00 0.00 0.00 99 903.7
20260830112802 70 12 2.0 8.0 0.00 0.00 0.00 99 903.7
20260830112501 71 20 6.0 7.0 0.00 0.00 0.00 98 903.5
20260830112202 70 15 0.0 0.0 0.00 0.00 0.00 98 903.6
20260830112001 71 5 2.0 6.0 0.00 0.00 0.00 98 903.6
20260830111602 71 18 2.0 6.0 0.00 0.00 0.00 99 903.5
20260830111501 70 25 0.0 5.0 0.00 0.00 0.00 98 903.5
20260830111003 71 29 4.0 5.0 0.00 0.00 0.00 98 903.6
20260830111001 71 26 4.0 5.0 0.00 0.00 0.00 98 903.6
20260830110501 70 19 4.0 5.0 0.00 0.00 0.00 98 903.5
20260830110402 70 25 4.0 5.0 0.00 0.00 0.00 98 903.5
20260830110001 70 32 1.0 5.0 0.00 0.00 0.00 98 903.4
20260830105803 70 35 6.0 6.0 0.00 0.00 0.00 98 903.5
20260830105501 70 40 4.0 5.0 0.00 0.00 0.00 98 903.4
20260830105202 70 26 4.0 5.0 0.00 0.00 0.00 98 903.4
20260830105001 70 19 4.0 5.0 0.00 0.00 0.00 98 903.4
20260830104602 70 37 3.0 5.0 0.00 0.00 0.00 98 903.4
20260830104002 70 14 3.0 4.0 0.00 0.00 0.00 98 903.4
20260830103402 70 29 2.0 4.0 0.00 0.00 0.00 99 903.4
20260830103001 70 27 0.0 3.0 0.00 0.00 0.00 99 903.4
20260830102501 70 3 3.0 5.0 0.00 0.00 0.00 99 903.3
20260830102202 70 12 0.0 3.0 0.00 0.00 0.00 99 903.3
20260830102001 70 8 0.0 0.0 0.00 0.00 0.00 98 903.3
20260830101602 70 56 0.0 0.0 0.00 0.00 0.00 98 903.3
20260830101500 70 57 0.0 0.0 0.00 0.00 0.00 98 903.4
20260830101001 70 299 0.0 0.0 0.00 0.00 0.00 98 903.3
20260830100501 70 305 0.0 0.0 0.00 0.00 0.00 99 903.3
20260830100002 70 319 0.0 1.0 0.00 0.00 0.00 98 903.2
20260830095802 70 341 0.0 1.0 0.00 0.00 0.00 98 903.2
20260830095501 70 17 0.0 0.0 0.00 0.00 0.00 99 903.2
20260830095202 70 48 1.0 2.0 0.00 0.00 0.00 98 903.2
20260830095000 70 54 0.0 1.0 0.00 0.00 0.00 98 903.1
20260830094602 70 80 0.0 1.0 0.00 0.00 0.00 98 903.0
20260830094501 70 98 0.0 1.0 0.00 0.00 0.00 98 903.0
20260830094002 70 102 0.0 0.0 0.00 0.00 0.00 98 903.0
20260830094000 70 102 0.0 0.0 0.00 0.00 0.00 98 902.9
20260830093500 70 303 0.0 1.0 0.00 0.00 0.00 99 903.0
20260830093402 70 354 0.0 0.0 0.00 0.00 0.00 99 903.0
20260830092801 70 348 0.0 1.0 0.00 0.00 0.00 98 902.9
20260830092500 70 6 1.0 1.0 0.00 0.00 0.00 98 903.0
20260830092201 70 6 0.0 1.0 0.00 0.00 0.00 98 902.9
20260830092000 70 34 0.0 2.0 0.00 0.00 0.00 99 903.0
20260830091500 71 12 0.0 2.0 0.00 0.00 0.00 98 902.9
20260830091002 71 102 1.0 1.0 0.00 0.00 0.00 99 902.9
20260830091000 71 103 1.0 1.0 0.00 0.00 0.00 99 902.9
20260830090500 71 101 0.0 0.0 0.00 0.00 0.00 99 902.9
20260830090401 71 116 0.0 0.0 0.00 0.00 0.00 99 902.8
20260830085801 71 186 0.0 2.0 0.00 0.00 0.00 99 902.8
20260830085500 71 159 0.0 4.0 0.00 0.00 0.00 98 902.7
20260830085201 71 117 2.0 4.0 0.00 0.00 0.00 98 902.7
20260830085000 71 91 3.0 4.0 0.00 0.00 0.00 98 902.7
20260830084602 71 107 2.0 4.0 0.00 0.00 0.00 98 902.7
20260830084500 71 104 1.0 5.0 0.00 0.00 0.00 98 902.7
20260830084002 71 120 2.0 6.0 0.00 0.00 0.00 98 902.7
20260830084000 71 129 2.0 6.0 0.00 0.00 0.00 98 902.7
20260830083500 71 121 4.0 8.0 0.00 0.00 0.00 99 902.8
20260830083401 71 94 4.0 8.0 0.00 0.00 0.00 99 902.8
20260830083000 71 91 5.0 8.0 0.00 0.00 0.00 98 902.8
20260830082801 71 97 6.0 8.0 0.00 0.00 0.00 99 902.8